Location: Dumpton Point
(51.3500°N, 1.4433°E)
Time: 14:44:26
(UTC+00:00)

Explorer 7 - All Passes

Search period start: 23 April 2021 00:00
Search period end: 03 May 2021 00:00
Orbit: 484 x 677 km, 50.3° (Epoch: 22 April)

Date Brightness Start Highest point End Pass type
(mag) Time Alt. Az. Time Alt. Az. Time Alt. Az.
23 Apr - 00:04:48 10° W 00:08:52 38° SSW 00:13:10 10° SE visible
23 Apr - 01:46:55 10° WSW 01:48:36 12° SW 01:50:17 10° SSW night (unlit)
23 Apr - 19:08:40 10° SW 19:12:21 37° SSE 19:16:14 10° E daylight
23 Apr - 20:48:28 10° WSW 20:52:34 75° S 20:56:56 10° E visible
23 Apr - 22:28:48 10° W 22:33:01 66° SSW 22:37:31 10° ESE visible
24 Apr - 00:09:22 10° W 00:13:11 29° SSW 00:17:09 10° SSE visible
24 Apr - 17:34:40 10° S 17:36:56 15° SE 17:39:17 10° ESE daylight
24 Apr - 19:12:50 10° SW 19:16:40 48° SSE 19:20:44 10° E daylight
24 Apr - 20:52:53 10° W 20:57:00 79° S 21:01:23 10° E visible
24 Apr - 22:33:14 10° W 22:37:24 56° SSW 22:41:50 10° ESE visible
25 Apr - 00:14:04 10° W 00:17:25 21° SW 00:20:54 10° SSE visible
25 Apr - 17:38:08 10° SSW 17:41:07 21° SE 17:44:13 10° E daylight
25 Apr - 19:17:08 10° WSW 19:21:02 59° SSE 19:25:12 10° E daylight
25 Apr - 20:57:19 10° W 21:01:26 78° S 21:05:49 10° E visible
25 Apr - 22:37:42 10° W 22:41:46 45° SSW 22:46:05 10° SE visible
26 Apr - 00:19:03 10° WSW 00:21:37 15° SW 00:24:14 10° S visible
26 Apr - 17:41:57 10° SSW 17:45:21 29° SSE 17:48:53 10° E daylight
26 Apr - 19:21:29 10° WSW 19:25:26 69° SSE 19:29:38 10° E daylight
26 Apr - 21:01:46 10° W 21:05:52 72° S 21:10:14 10° ESE visible
26 Apr - 22:42:13 10° W 22:46:05 34° SSW 22:50:11 10° SE visible
27 Apr - 00:25:39 10° SW 00:25:45 10° SW 00:25:51 10° SW night (unlit)
27 Apr - 16:09:11 10° SSE 16:10:03 11° SE 16:10:56 10° ESE daylight
27 Apr - 17:46:01 10° SW 17:49:38 39° SSE 17:53:26 10° E daylight
27 Apr - 19:25:53 10° W 19:29:51 76° S 19:34:05 10° E daylight
27 Apr - 21:06:11 10° W 21:10:15 63° SSW 21:14:36 10° ESE visible
27 Apr - 22:46:49 10° W 22:50:22 26° SSW 22:54:06 10° SSE visible
28 Apr - 16:11:49 10° S 16:14:10 16° SE 16:16:37 10° ESE daylight
28 Apr - 17:50:12 10° SW 17:53:57 50° SSE 17:57:55 10° E daylight
28 Apr - 19:30:18 10° W 19:34:16 79° S 19:38:31 10° E daylight
28 Apr - 21:10:38 10° W 21:14:39 52° SSW 21:18:54 10° SE visible
28 Apr - 22:51:34 10° W 22:54:36 19° SW 22:57:43 10° S visible
29 Apr - 16:15:22 10° SSW 16:18:21 22° SE 16:21:28 10° E daylight
29 Apr - 17:54:30 10° WSW 17:58:19 61° SSE 18:02:21 10° E daylight
29 Apr - 19:34:43 10° W 19:38:41 76° S 19:42:56 10° E daylight
29 Apr - 21:15:06 10° W 21:18:58 41° SSW 21:23:06 10° SE visible
29 Apr - 22:56:45 10° WSW 22:58:46 13° SW 23:00:50 10° SSW visible
30 Apr - 16:19:14 10° SSW 16:22:36 30° SSE 16:26:06 10° E daylight
30 Apr - 17:58:51 10° WSW 18:02:43 71° S 18:06:47 10° E daylight
30 Apr - 19:39:08 10° W 19:43:07 69° S 19:47:20 10° ESE daylight
30 Apr - 21:19:37 10° W 21:23:17 31° SSW 21:27:09 10° SSE visible
01 May - 14:45:58 10° SSE 14:47:15 11° SE 14:48:34 10° ESE daylight
01 May - 16:23:18 10° SW 16:26:53 40° SSE 16:30:37 10° E daylight
01 May - 18:03:15 10° W 18:07:07 77° S 18:11:13 10° E daylight
01 May - 19:43:34 10° W 19:47:30 59° SSW 19:51:41 10° ESE daylight
01 May - 21:24:15 10° W 21:27:32 23° SW 21:30:58 10° SSE visible
02 May - 14:48:55 10° S 14:51:24 17° SE 14:53:56 10° E daylight
02 May - 16:27:31 10° WSW 16:31:13 52° SSE 16:35:05 10° E daylight
02 May - 18:07:39 10° W 18:11:32 78° S 18:15:38 10° E daylight
02 May - 19:48:00 10° W 19:51:51 48° SSW 19:55:56 10° SE visible
02 May - 21:29:06 10° WSW 21:31:45 16° SW 21:34:29 10° S visible
